Content
SEND FEEDBACK

Daily
Averages
Monthly
Summary
United States of America

FARMINGTON, NEW MEXICO


Home > North America > United States > New Mexico
Elevation: 5503 feet     Latitude: 36 44N     Longitude: 108 13W

WEATHER
 
SELECT A DAY
Number of Records: 177,564;   Date Range: 1/1/95 - 10/20/14
 
SHARE

PRINT THIS DATA

[ ← Previous Day ]
WEATHER ALMANAC - JANUARY 31, 2013
[ Next Day → ]
[ °C ]   °F
Weather ElementAverageHighLow
Temperature33.1 °F46 °F (1:53 pm)23 °F (6:53 am)
Dewpoint23.3 °F28 °F (12:53 pm)19 °F (6:53 am)
Humidity68.9 %88 % (4:53 am)42 % (4:53 pm)
Barometer30.31 in30.37 in (8:53 am)30.25 in (1:53 pm)
Wind Speed5.3 mph17.3 mph (3:53 pm)
Wind Gust19.6 mph (1:53 pm)
Weather ElementAverage
Visibility10 mi
Wind DirectionSSE (146.5 °)

Weather ElementTotal
Precipitation---
Heating Degree Days30.5 (Base 65)
Averaged from 23 records on January 31, 2013
WEATHER CONDITIONS BREAKOUT
WIND DIRECTION BREAKOUT
WEATHER BY HOUR - JANUARY 31, 2013
[ °C ]   °F
Local TimeTemperatureDewpointHumidityBarometerVisibilityWind DirectionWind SpeedGust SpeedPrecipitationEventsConditions
1:53 AM27.0 °F21.0 °F78 %30.26 in10.0 miCalmClear
2:53 AM26.1 °F21.0 °F81 %30.26 in10.0 miCalmClear
3:53 AM25.0 °F19.9 °F81 %30.27 in10.0 miCalmClear
4:53 AM24.1 °F21.0 °F88 %30.30 in10.0 miSouth (190°)3.5 mphClear
5:53 AM24.1 °F19.9 °F84 %30.32 in10.0 miCalmClear
6:53 AM23.0 °F19.0 °F85 %30.33 in10.0 miCalmClear
7:53 AM25.0 °F21.0 °F85 %30.35 in10.0 miCalmClear
8:53 AM28.0 °F23.0 °F81 %30.37 in10.0 miSE (140°)4.6 mphClear
9:53 AM33.1 °F26.1 °F75 %30.36 in10.0 miSW (230°)4.6 mphClear
10:53 AM39.0 °F27.0 °F62 %30.34 in10.0 miWest (270°)6.9 mphClear
11:53 AM41.0 °F27.0 °F57 %30.31 in10.0 miWest (280°)11.5 mphClear
12:53 PM43.0 °F28.0 °F56 %30.27 in10.0 miWest (270°)12.7 mphClear
1:53 PM46.0 °F27.0 °F47 %30.25 in10.0 miWest (280°)15.0 mph19.6 mphClear
2:53 PM46.0 °F28.0 °F50 %30.26 in10.0 miWest (270°)13.8 mphClear
3:53 PM45.0 °F26.1 °F48 %30.28 in10.0 miWest (280°)17.3 mphClear
4:53 PM44.1 °F21.9 °F42 %30.31 in10.0 miWest (270°)11.5 mphClear
5:53 PM37.0 °F23.0 °F57 %30.33 in10.0 miWSW (250°)3.5 mphClear
6:53 PM35.1 °F23.0 °F61 %30.35 in10.0 miWSW (250°)5.8 mphClear
7:53 PM35.1 °F23.0 °F61 %30.34 in10.0 miNNW (330°)6.9 mphClear
8:53 PM30.0 °F21.0 °F69 %30.36 in10.0 miCalmClear
9:53 PM30.9 °F23.0 °F72 %30.33 in10.0 miCalmClear
10:53 PM28.0 °F23.0 °F81 %30.33 in10.0 miCalmClear
11:53 PM26.1 °F21.9 °F84 %30.33 in10.0 miENE (60°)3.5 mphClear
Hourly data recorded from KFMN, located miles away from Farmington, New Mexico







STORIES FROM OUR PARTNERS